Погода в Хазивью

ЮАР     25°02′39″S   31°07′43″E
темп.,
°C
ветер,
м/с
пор.,
м/с
влажн.,
%
обл.,
%
осадки,
мм/ч
давл.,
гПа
погр.,
м
20 января, ср
ср2023:00+21ю128393 0.0 101424
02:00+19юз119096 0.0 101323
05:00+19зюз129096 0.0 101430
08:00+25вюв117297 0.0 1014478
11:00+30юв455295 0.0 10151403
14:00+32юв574454 0.0 10131817
17:00+28юв685528 0.0 10131399
20:00+23юв287423 0.0 1015477
21 января, чт
чт2123:00+22ююв398893 0.3 1018640
02:00+20ююв3109096 1.0 1017430
05:00+19ююз259236 0.1 1017151
08:00+23ююв257325 0.1 1018599
11:00+28юв355141 0.0 10161496
14:00+31юв454346 0.0 10131799
17:00+30вюв45480 0.0 10121703
20:00+23вюв38710 0.0 1015383
22 января, пт
пт2223:00+20юв249123 0.0 1017262
02:00+20ююз238848 0.1 1016189
05:00+19ю119644 0.0 101523
08:00+23вюв127736 0.0 1015496
11:00+29в235060 0.0 1013938
14:00+33в342929 0.0 10101686
17:00+32вюв34340 0.0 10091684
20:00+23вюв310640 0.0 1012440
23 января, сб
сб2323:00+19ююз22850 0.0 101365
02:00+18ю11910 0.0 101125
05:00+17ююз11950 0.0 101129
08:00+23ююв24680 0.0 1011522
11:00+31юв35351 0.0 10081127
14:00+33юв573134 0.0 10051664
17:00+25вюв5979100 0.2 1005792
20:00+22ю41083100 0.3 1007781
24 января, вс
вс2423:00+23ююз41072100 0.0 1006599
02:00+24ююз51168100 0.0 1003921
05:00+24ююз51366100 0.0 10021222
08:00+23ююз61679100 1.3 10001319
11:00+22ююз81894100 25.4 10001358
14:00+22ю92091100 41.4 10001264
17:00+21ю72294100 14.8 10001650
20:00+20ююв102295100 48.4 10031550